📊 Raw Sensor Data

Showing records 40826 to 40850 of 84,971 total

ID Distance (ft) Battery V Battery A Int Temp (°F) Int Humid (%) Ext Temp (°F) Solar V RSSI SNR Time Stamp
44158 15.2 3.81 -5 64 48 64 0.00 -66 8 06/21/2025 09:30 PM
44157 15.2 3.86 -5 65 49 65 0.00 -67 8 06/21/2025 09:15 PM
44156 15.2 3.86 -5 66 51 66 0.00 -69 8 06/21/2025 09:00 PM
44155 15.2 3.94 -5 68 52 68 2.20 -69 8 06/21/2025 08:45 PM
44154 15.3 3.96 0 77 50 72 4.50 -69 8 06/21/2025 08:15 PM
44153 15.3 3.90 0 81 49 74 4.50 -70 8 06/21/2025 08:00 PM
44152 15.3 3.98 7 82 48 77 4.60 -69 8 06/21/2025 07:45 PM
44151 15.3 3.98 10 84 48 77 4.50 -68 8 06/21/2025 07:30 PM
44150 15.3 4.00 0 85 47 78 4.60 -70 8 06/21/2025 07:15 PM
44149 15.3 3.95 20 86 47 79 4.50 -68 8 06/21/2025 07:00 PM
44148 15.3 3.93 0 86 47 79 5.10 -69 8 06/21/2025 06:45 PM
44147 15.3 3.93 0 87 46 79 5.10 -70 7 06/21/2025 06:30 PM
44146 15.3 3.93 0 87 46 81 5.10 -69 8 06/21/2025 06:15 PM
44145 15.3 3.93 0 87 46 79 5.10 -69 8 06/21/2025 06:00 PM
44144 15.3 3.93 0 88 45 80 5.10 -68 7 06/21/2025 05:45 PM
44143 15.3 3.93 0 88 44 80 5.10 -69 8 06/21/2025 05:30 PM
44142 15.3 3.93 0 89 43 81 5.10 -71 8 06/21/2025 05:15 PM
44141 15.3 3.93 0 88 43 80 5.10 -69 7 06/21/2025 05:00 PM
44140 15.3 4.06 0 87 43 79 5.10 -67 7 06/21/2025 04:15 PM
44139 15.3 3.93 0 87 42 79 5.10 -69 8 06/21/2025 04:00 PM
44138 15.4 3.95 0 87 42 79 5.10 -71 7 06/21/2025 03:45 PM
44137 15.3 3.93 0 86 42 80 5.10 -69 7 06/21/2025 03:30 PM
44136 15.4 3.93 0 86 41 77 5.10 -69 8 06/21/2025 03:15 PM
44135 15.3 3.93 0 84 41 79 5.10 -70 7 06/21/2025 03:00 PM
44134 15.3 3.93 0 84 41 78 5.10 -70 8 06/21/2025 02:45 PM